Location: Cheyres
(46.8153°N, 6.7877°E)
Time: 01:21:06
(UTC+00:00)

ATLAS CENTAUR R/B - Pass Details

Date: 11 May 2021
Orbit: 472 x 671 km, 64.6° (Epoch: 13 June)

Event Time Altitude Azimuth Distance (km) Brightness Sun altitude
Exits shadow 23:38:19 34° 54° (NE) 820 2.4 -25.0°
Drops below altitude 10° 23:40:39 10° 42° (NE) 1,708 4.5 -25.0°
Sets 23:42:52 0° 40° (NE) 2,624 5.6 -25.0°
